This demonstration page uses our WeatherBlox Daily Observations layout. Learn more.

Left ArrowRight Arrow

44.8408, -93.29828

Hourly Observations for February 6, 2019

Temp ( °F °C ) Dew Point ( °F °C ) Humidity (%) Winds ( mph kmh ) Pressure ( in mb ) Visibility ( mi km ) Precip ( " mm )
12:00 am 00:00 Cloudy with Light Wintry Mix 13 -10.6 13 -10.6 100 100 N 6 9 30.14 1021 3 4 0.00 0.03
12:28 am 00:28 Cloudy with Light Wintry Mix 13 -10.6 13 -10.6 100 100 N 8 13 30.14 1021 3 5 0.00 0.03
12:40 am 00:40 Cloudy with Light Snow 13 -10.6 12 -11.1 96 96 NNW 7 11 30.14 1021 3 5 0.00 0.03
12:53 am 00:53 Cloudy with Light Wintry Mix 13 -10.6 12 -11.1 96 96 N 8 13 30.11 1020 4 6 0.00 0.03
1:53 am 01:53 Cloudy with Light Wintry Mix 12 -11.1 12 -11.1 100 100 N 7 11 30.10 1019 8 13 0.00 0.03
2:01 am 02:01 Cloudy with Light Snow 12 -11.1 12 -11.1 100 100 N 7 11 30.14 1021 8 13 0.00 0.03
2:53 am 02:53 Cloudy with Light Snow 13 -10.6 12 -11.1 96 96 N 5 7 30.11 1020 9 14 0.00 0.03
3:53 am 03:53 Cloudy 13 -10.6 12 -11.1 96 96 N 3 6 30.10 1019 10 16 0.00 0.03
4:53 am 04:53 Cloudy 13 -10.6 12 -11.1 96 96 NNW 8 13 30.10 1019 9 14 0.00 0.00
5:29 am 05:29 Cloudy 13 -10.6 12 -11.1 96 96 N 5 7 30.13 1020 10 16 0.00 0.00
5:53 am 05:53 Cloudy 13 -10.6 12 -11.1 96 96 NNE 5 7 30.09 1019 8 13 0.00 0.00
6:04 am 06:04 Cloudy 13 -10.6 12 -11.1 96 96 NNW 5 7 30.14 1021 9 14 0.00 0.00
6:53 am 06:53 Cloudy 14 -10 12 -11.1 92 92 N 6 9 30.10 1019 10 16 0.00 0.00
7:02 am 07:02 Cloudy 14 -10 12 -11.1 92 92 N 5 7 30.12 1020 10 16 0.00 0.00
7:38 am 07:38 Cloudy 14 -10 12 -11.1 92 92 NNE 8 13 30.12 1020 9 14 0.00 0.00
7:53 am 07:53 Cloudy 14 -10 12 -11.1 92 92 VRB 5 7 30.09 1019 10 16 0.00 0.00
8:23 am 08:23 Cloudy 14 -10 12 -11.1 92 92 NNE 3 6 30.13 1020 10 16 0.00 0.00
8:53 am 08:53 Cloudy 15 -9.4 13 -10.6 91 91 N 3 6 30.11 1020 10 16 0.00 0.00
9:53 am 09:53 Cloudy 16 -8.9 13 -10.6 88 88 NW 3 6 30.11 1020 10 16 0.00 0.00
10:30 am 10:30 Cloudy 17 -8.3 14 -10 88 88 N 8 13 30.14 1021 10 16 0.00 0.00
10:53 am 10:53 Cloudy 17 -8.3 14 -10 88 88 VRB 7 11 30.11 1020 10 16 0.00 0.00
11:53 am 11:53 Cloudy 18 -7.8 14 -10 84 84 NW 7 11 30.11 1020 10 16 0.00 0.00
12:53 pm 12:53 Cloudy 19 -7.2 14 -10 81 81 N 8 13 30.09 1019 10 16 0.00 0.00
1:36 pm 13:36 Cloudy 19 -7.2 15 -9.4 84 84 N 9 15 30.10 1019 10 16 0.00 0.00
1:53 pm 13:53 Cloudy 20 -6.7 15 -9.4 81 81 N 9 15 30.08 1019 10 16 0.00 0.00
2:53 pm 14:53 Cloudy 21 -6.1 15 -9.4 78 78 NNE 9 15 30.08 1019 10 16 0.00 0.00
3:10 pm 15:10 Cloudy 20 -6.7 15 -9.4 81 81 N 9 15 30.10 1019 10 16 0.00 0.00
3:53 pm 15:53 Cloudy 21 -6.1 15 -9.4 78 78 NNE 5 7 30.09 1019 10 16 0.00 0.00
4:53 pm 16:53 Cloudy 20 -6.7 15 -9.4 81 81 N 7 11 30.08 1019 10 16 0.00 0.00
5:53 pm 17:53 Cloudy 20 -6.7 16 -8.9 85 85 NNE 7 11 30.08 1019 10 16 0.00 0.00
6:53 pm 18:53 Cloudy with Light Snow 20 -6.7 16 -8.9 85 85 N 7 11 30.07 1018 6 10 0.00 0.03
7:29 pm 19:29 Cloudy with Light Snow 20 -6.7 17 -8.3 89 89 N 8 13 30.09 1019 2 3 0.01 0.25
7:53 pm 19:53 Cloudy with Light Snow 20 -6.7 17 -8.3 89 89 N 7 11 30.07 1018 2 3 0.02 0.51
8:00 pm 20:00 Cloudy with Light Snow 20 -6.7 17 -8.3 89 89 N 6 9 30.10 1019 3 5 0.01 0.25
8:17 pm 20:17 Cloudy with Light Snow 19 -7.2 17 -8.3 92 92 N 5 7 30.10 1019 4 6 0.01 0.25
8:53 pm 20:53 Cloudy with Light Snow 20 -6.7 17 -8.3 89 89 N 5 7 30.08 1019 6 10 0.01 0.25
9:53 pm 21:53 Cloudy with Light Wintry Mix 19 -7.2 17 -8.3 92 92 VRB 7 11 30.07 1018 6 10 0.00 0.03
10:27 pm 22:27 Cloudy with Light Freezing Drizzle 19 -7.2 18 -7.8 96 96 NNW 7 11 30.10 1019 5 8 0.00 0.03
10:53 pm 22:53 Cloudy with Light Freezing Drizzle 19 -7.2 18 -7.8 96 96 N 6 9 30.07 1018 4 6 0.00 0.03
11:13 pm 23:13 Cloudy with Light Freezing Drizzle 19 -7.2 18 -7.8 96 96 N 6 9 30.08 1019 2 3 0.00 0.03
11:53 pm 23:53 Cloudy with Light Freezing Drizzle 19 -7.2 19 -7.2 100 100 N 5 7 30.05 1018 2 3 0.00 0.03

Powered by AerisWeather